Cambridge, MD

9:43 PM EDT on May 22, 2018 (GMT -0400)
Cambridge-Dorchester

Weather History for KCGE - February, 2014

Change the Weather History Date:

Tuesday, February 11, 2014

  Actual Average (KESN) Record (KESN)
Temperature  
Mean Temperature 28 °F -  
Max Temperature 32 °F 45 °F 68 °F (2009)
Min Temperature 23 °F 26 °F 7 °F (1962)
Degree Days  
Heating Degree Days 38    
Moisture  
Dew Point 11 °F    
Average Humidity 49    
Maximum Humidity 80    
Minimum Humidity 35    
Precipitation  
Precipitation 0.00 in - - ()
Sea Level Pressure  
Sea Level Pressure 30.40 in    
Wind  
Wind Speed 6 mph (North)    
Max Wind Speed 12 mph    
Max Gust Speed 18 mph    
Visibility 10 miles    
Events      
Averages and records for this station are not official NWS values.
T = Trace of Precipitation, MM = Missing Value Source: NWS Daily Summary

Daily Weather History Graph

Daily Weather History Graph

Search for Another Location

Airport or City:

Astronomy

Feb. 11, 2014 Rise Set
Actual Time 6:59 AM EST 5:37 PM EST
Civil Twilight 6:32 AM EST 6:05 PM EST
Nautical Twilight 6:00 AM EST 6:36 PM EST
Astronomical Twilight 5:30 AM EST 7:07 PM EST
Moon 2:57 PM EST (2/11) 4:33 AM EST (2/11)
Length of Visible Light 11h 32m
Length of Day
10h 38m
Waxing Gibbous, 90% of the Moon is Illuminated
Feb 11
Waxing Gibbous
Feb 14
Full
Feb 22
Last Quarter
Mar 1
New
Mar 8
First Quarter

Hourly Weather History & Observations

Time (EST) Temp. Windchill Dew Point Humidity Pressure Visibility Wind Dir Wind Speed Gust Speed Precip Events Conditions
12:14 AM 23.0 °F 18.4 °F 17.6 °F 80% 30.33 in 10.0 mi NNW 3.5 mph - N/A   Clear
12:34 AM 28.4 °F 23.3 °F 14.0 °F 55% 30.33 in 10.0 mi North 4.6 mph - N/A   Clear
12:54 AM 28.4 °F 22.2 °F 14.0 °F 55% 30.33 in 10.0 mi North 5.8 mph - N/A   Clear
1:14 AM 26.6 °F 21.2 °F 12.2 °F 55% 30.33 in 10.0 mi North 4.6 mph - N/A   Clear
1:34 AM 26.6 °F 21.2 °F 14.0 °F 59% 30.33 in 10.0 mi NNW 4.6 mph - N/A   Clear
1:54 AM 26.6 °F 19.1 °F 12.2 °F 55% 30.32 in 10.0 mi North 6.9 mph - N/A   Clear
2:14 AM 26.6 °F 20.0 °F 12.2 °F 55% 30.33 in 10.0 mi North 5.8 mph - N/A   Clear
2:34 AM 26.6 °F 22.6 °F 12.2 °F 55% 30.33 in 10.0 mi North 3.5 mph - N/A   Clear
2:54 AM 23.0 °F - 14.0 °F 68% 30.34 in 10.0 mi Calm Calm - N/A   Clear
3:14 AM 23.0 °F 18.4 °F 14.0 °F 68% 30.34 in 10.0 mi NNW 3.5 mph - N/A   Clear
3:34 AM 24.8 °F 17.9 °F 14.0 °F 64% 30.34 in 10.0 mi NNW 5.8 mph - N/A   Clear
3:54 AM 24.8 °F 19.1 °F 14.0 °F 64% 30.35 in 10.0 mi North 4.6 mph - N/A   Clear
4:14 AM 26.6 °F 20.0 °F 14.0 °F 59% 30.35 in 10.0 mi North 5.8 mph - N/A   Clear
4:34 AM 26.6 °F 19.1 °F 12.2 °F 55% 30.36 in 10.0 mi North 6.9 mph - N/A   Clear
4:54 AM 26.6 °F 19.1 °F 12.2 °F 55% 30.36 in 10.0 mi North 6.9 mph - N/A   Clear
5:14 AM 24.8 °F 16.9 °F 12.2 °F 59% 30.37 in 10.0 mi North 6.9 mph - N/A   Clear
5:35 AM 24.8 °F 16.1 °F 12.2 °F 59% 30.38 in 10.0 mi North 8.1 mph - N/A   Clear
5:55 AM 24.8 °F 17.9 °F 12.2 °F 59% 30.38 in 10.0 mi North 5.8 mph - N/A   Clear
6:15 AM 24.8 °F 20.5 °F 12.2 °F 59% 30.38 in 10.0 mi North 3.5 mph - N/A   Clear
6:35 AM 23.0 °F 17.0 °F 12.2 °F 63% 30.38 in 10.0 mi North 4.6 mph - N/A   Clear
6:55 AM 23.0 °F 14.7 °F 12.2 °F 63% 30.39 in 10.0 mi North 6.9 mph - N/A   Clear
7:15 AM 23.0 °F 14.7 °F 10.4 °F 59% 30.41 in 10.0 mi North 6.9 mph - N/A   Clear
7:35 AM 24.8 °F 16.1 °F 10.4 °F 54% 30.41 in 10.0 mi North 8.1 mph - N/A   Clear
7:55 AM 24.8 °F 16.1 °F 10.4 °F 54% 30.41 in 10.0 mi North 8.1 mph - N/A   Clear
8:15 AM 24.8 °F 15.3 °F 10.4 °F 54% 30.41 in 10.0 mi North 9.2 mph 16.1 mph N/A   Clear
8:35 AM 26.6 °F 17.5 °F 10.4 °F 51% 30.43 in 10.0 mi North 9.2 mph - N/A   Clear
8:55 AM 26.6 °F 17.5 °F 10.4 °F 51% 30.42 in 10.0 mi North 9.2 mph - N/A   Clear
9:15 AM 26.6 °F 18.2 °F 10.4 °F 51% 30.43 in 10.0 mi North 8.1 mph - N/A   Clear
9:35 AM 28.4 °F 18.5 °F 10.4 °F 47% 30.43 in 10.0 mi North 11.5 mph 16.1 mph N/A   Clear
9:55 AM 28.4 °F 18.5 °F 10.4 °F 47% 30.43 in 10.0 mi North 11.5 mph - N/A   Clear
10:15 AM 28.4 °F 20.4 °F 10.4 °F 47% 30.43 in 10.0 mi North 8.1 mph - N/A   Clear
10:35 AM 28.4 °F 21.2 °F 10.4 °F 47% 30.43 in 10.0 mi North 6.9 mph - N/A   Clear
10:55 AM 30.2 °F 22.6 °F 10.4 °F 44% 30.43 in 10.0 mi North 8.1 mph 17.3 mph N/A   Clear
11:15 AM 30.2 °F 23.4 °F 10.4 °F 44% 30.42 in 10.0 mi North 6.9 mph - N/A   Clear
11:35 AM 30.2 °F 21.9 °F 10.4 °F 44% 30.41 in 10.0 mi NNW 9.2 mph - N/A   Clear
11:55 AM 32.0 °F 25.6 °F 10.4 °F 41% 30.40 in 10.0 mi NNW 6.9 mph - N/A   Clear
12:15 PM 32.0 °F 24.8 °F 12.2 °F 44% 30.40 in 10.0 mi WNW 8.1 mph - N/A   Clear
12:35 PM 32.0 °F 23.0 °F 12.2 °F 44% 30.39 in 10.0 mi NW 11.5 mph 16.1 mph N/A   Clear
12:55 PM 32.0 °F 24.2 °F 12.2 °F 44% 30.39 in 10.0 mi NW 9.2 mph 16.1 mph N/A   Clear
1:15 PM 32.0 °F 24.2 °F 12.2 °F 44% 30.38 in 10.0 mi NNW 9.2 mph 17.3 mph N/A   Clear
1:35 PM 32.0 °F 23.0 °F 10.4 °F 41% 30.38 in 10.0 mi NNW 11.5 mph 16.1 mph N/A   Clear
1:56 PM 32.0 °F 23.6 °F 8.6 °F 38% 30.38 in 10.0 mi NW 10.4 mph 17.3 mph N/A   Clear
2:16 PM 32.0 °F 24.2 °F 8.6 °F 38% 30.38 in 10.0 mi NW 9.2 mph 18.4 mph N/A   Clear
2:36 PM 32.0 °F 24.8 °F 8.6 °F 38% 30.38 in 10.0 mi NW 8.1 mph - N/A   Clear
2:56 PM 32.0 °F 24.2 °F 8.6 °F 38% 30.38 in 10.0 mi NW 9.2 mph - N/A   Clear
3:16 PM 32.0 °F 23.6 °F 8.6 °F 38% 30.38 in 10.0 mi NW 10.4 mph - N/A   Clear
3:36 PM 32.0 °F 24.8 °F 8.6 °F 38% 30.38 in 10.0 mi NNW 8.1 mph - N/A   Clear
3:56 PM 32.0 °F 24.8 °F 8.6 °F 38% 30.38 in 10.0 mi NW 8.1 mph - N/A   Clear
4:16 PM 32.0 °F 25.6 °F 8.6 °F 38% 30.38 in 10.0 mi NW 6.9 mph - N/A   Clear
4:36 PM 32.0 °F 25.6 °F 6.8 °F 35% 30.38 in 10.0 mi NNW 6.9 mph - N/A   Clear
4:56 PM 32.0 °F 26.4 °F 6.8 °F 35% 30.39 in 10.0 mi NW 5.8 mph - N/A   Clear
5:16 PM 32.0 °F 28.7 °F 8.6 °F 38% 30.40 in 10.0 mi NNW 3.5 mph - N/A   Clear
5:36 PM 32.0 °F 27.5 °F 8.6 °F 38% 30.40 in 10.0 mi North 4.6 mph - N/A   Clear
5:56 PM 30.2 °F 26.7 °F 8.6 °F 40% 30.40 in 10.0 mi North 3.5 mph - N/A   Clear
6:16 PM 30.2 °F 24.3 °F 8.6 °F 40% 30.41 in 10.0 mi North 5.8 mph - N/A   Clear
6:36 PM 30.2 °F 24.3 °F 8.6 °F 40% 30.42 in 10.0 mi North 5.8 mph - N/A   Clear
6:56 PM 30.2 °F 25.4 °F 8.6 °F 40% 30.42 in 10.0 mi North 4.6 mph - N/A   Clear
7:16 PM 30.2 °F 25.4 °F 8.6 °F 40% 30.43 in 10.0 mi North 4.6 mph - N/A   Clear
7:36 PM 30.2 °F 24.3 °F 10.4 °F 44% 30.43 in 10.0 mi North 5.8 mph - N/A   Clear
7:56 PM 28.4 °F 22.2 °F 8.6 °F 43% 30.44 in 10.0 mi North 5.8 mph - N/A   Clear
8:16 PM 28.4 °F 23.3 °F 8.6 °F 43% 30.44 in 10.0 mi North 4.6 mph - N/A   Clear
8:36 PM 28.4 °F 19.1 °F 8.6 °F 43% 30.45 in 10.0 mi North 10.4 mph - N/A   Clear
8:56 PM 28.4 °F 22.2 °F 8.6 °F 43% 30.45 in 10.0 mi North 5.8 mph - N/A   Clear
9:16 PM 28.4 °F 21.2 °F 8.6 °F 43% 30.46 in 10.0 mi North 6.9 mph - N/A   Clear
9:36 PM 28.4 °F 21.2 °F 10.4 °F 47% 30.46 in 10.0 mi North 6.9 mph - N/A   Clear
9:56 PM 28.4 °F 20.4 °F 10.4 °F 47% 30.46 in 10.0 mi North 8.1 mph - N/A   Clear
10:16 PM 26.6 °F 18.2 °F 10.4 °F 51% 30.46 in 10.0 mi North 8.1 mph - N/A   Clear
10:36 PM 26.6 °F 20.0 °F 10.4 °F 51% 30.47 in 10.0 mi North 5.8 mph - N/A   Clear
10:57 PM 26.6 °F 20.0 °F 10.4 °F 51% 30.47 in 10.0 mi NNE 5.8 mph - N/A   Clear
11:17 PM 26.6 °F 21.2 °F 10.4 °F 51% 30.47 in 10.0 mi NNE 4.6 mph - N/A   Clear
11:37 PM 24.8 °F 16.9 °F 10.4 °F 54% 30.47 in 10.0 mi North 6.9 mph - N/A   Clear
11:57 PM 24.8 °F 20.5 °F 10.4 °F 54% 30.48 in 10.0 mi North 3.5 mph - N/A   Clear